Terug naar catalogus

FENGYUN 1C DEB

ActiefSSO
NORAD 37690·DEBRIS·🇨🇳 China

Gelanceerd May 10, 1999 vanaf Taiyuan Satellite Launch Center

Loading…

Volgende Passages (komende 24 uur)

TLE

VerouderdSource: Space-Track

Epoch: Aug 26, 2026, 08:18 UTC

1 37690U 99025ELF 26238.34641382  .00001185  00000-0  59655-3 0  9990
2 37690  98.7368 280.6094 0038222 279.9041 139.8849 14.17949965674011

Volg FENGYUN 1C DEB in realtime met AllMySat

Download on the App Store